EW3670 Weather Reports


Display with metric or nautical units.
time (UTC)temp
F
wind
direction
speed
MPH
gust
MPH
rain 1hr
in
rain 24hr
in
rain mn
in
humidity
%
barometer
mb
20260906081601 60 15 1.0 5.0 0.00 0.03 0.00 85 1017.0
20260906080104 60 0 1.0 2.0 0.00 0.03 0.00 85 1016.9
20260906074600 60 69 0.0 2.0 0.00 0.03 0.00 85 1016.8
20260906073105 60 63 0.0 4.0 0.00 0.03 0.00 85 1016.6
20260906071610 60 360 1.0 3.0 0.00 0.03 0.00 85 1016.7
20260906064604 59 56 1.0 4.0 0.00 0.03 0.00 85 1016.7
20260906063104 59 126 1.0 4.0 0.00 0.03 0.00 85 1016.6
20260906061604 59 63 2.0 4.0 0.00 0.03 0.00 85 1016.5
20260906060100 59 0 1.0 4.0 0.00 0.03 0.00 85 1016.7
20260906054603 59 162 2.0 8.0 0.00 0.03 0.00 85 1016.7
20260906053058 59 93 1.0 7.0 0.00 0.03 0.00 85 1016.6
20260906051606 60 54 2.0 7.0 0.00 0.03 0.00 84 1016.6
20260906050132 60 40 1.0 7.0 0.00 0.03 0.00 84 1016.5
20260906044559 61 171 2.0 10.0 0.00 0.03 0.00 82 1016.3
20260906043108 61 140 2.0 8.0 0.00 0.03 0.00 82 1016.2
20260906041602 61 122 1.0 5.0 0.00 0.03 0.00 82 1016.3
20260906040112 62 51 1.0 8.0 0.00 0.03 0.00 83 1016.1
20260906034558 62 13 3.0 9.0 0.00 0.03 0.03 86 1015.8
20260906033057 62 51 0.0 3.0 0.00 0.03 0.03 87 1015.7
20260906031601 61 63 0.0 5.0 0.00 0.03 0.03 87 1015.5
20260906030134 61 59 1.0 5.0 0.00 0.03 0.03 88 1015.5
20260906024557 61 53 0.0 2.0 0.00 0.03 0.03 88 1015.4
20260906023124 61 90 1.0 3.0 0.00 0.03 0.03 87 1015.5
20260906021612 62 95 0.0 3.0 0.00 0.03 0.03 87 1015.5
20260906020107 62 0 0.0 4.0 0.00 0.03 0.03 87 1015.4
20260906014623 62 104 2.0 11.0 0.00 0.03 0.03 85 1015.3
20260906013101 63 81 2.0 9.0 0.00 0.03 0.03 85 1015.2
20260906011606 64 141 4.0 9.0 0.00 0.03 0.03 85 1015.1
20260906010058 65 159 2.0 10.0 0.00 0.03 0.03 83 1015.2
20260906004606 66 34 4.0 10.0 0.00 0.03 0.03 79 1014.9
20260906003109 66 28 0.0 4.0 0.00 0.03 0.03 79 1014.5
20260906001603 67 64 1.0 2.0 0.00 0.03 0.03 78 1014.3
20260906000109 67 111 1.0 4.0 0.00 0.03 0.03 77 1014.1
20260905234618 68 34 1.0 8.0 0.00 0.03 0.03 72 1014.2
20260905233103 68 15 3.0 9.0 0.00 0.03 0.03 70 1014.1
20260905231602 69 331 1.0 10.0 0.00 0.03 0.03 72 1014.1
20260905230100 69 36 2.0 9.0 0.00 0.03 0.03 72 1014.0
20260905224610 70 10 2.0 9.0 0.00 0.03 0.03 70 1014.0
20260905223102 70 26 3.0 9.0 0.00 0.03 0.03 69 1013.9
20260905221603 70 26 2.0 8.0 0.00 0.03 0.03 69 1013.7
20260905220059 70 31 3.0 8.0 0.00 0.03 0.03 68 1013.7
20260905214611 70 317 1.0 3.0 0.00 0.03 0.03 68 1013.6
20260905213111 70 5 1.0 4.0 0.00 0.03 0.03 66 1013.6
20260905211603 70 13 1.0 4.0 0.00 0.03 0.03 70 1013.6
20260905210101 70 352 4.0 9.0 0.00 0.03 0.03 70 1013.5
20260905204559 71 323 1.0 4.0 0.00 0.03 0.03 69 1013.4
20260905203105 71 321 0.0 3.0 0.00 0.03 0.03 68 1013.4
20260905201607 71 286 0.0 3.0 0.00 0.03 0.03 69 1013.4
20260905194603 69 0 1.0 5.0 0.00 0.03 0.03 73 1013.5
20260905193101 68 306 1.0 4.0 0.00 0.03 0.03 78 1013.5
20260905191613 68 83 1.0 5.0 0.03 0.03 0.03 80 1013.8
20260905184610 68 360 1.0 2.0 0.03 0.03 0.03 82 1013.5
20260905183103 67 360 0.0 3.0 0.03 0.03 0.03 76 1013.6
20260905181606 70 53 4.0 10.0 0.00 0.00 0.00 72 1013.7
20260905174617 73 71 1.0 4.0 0.00 0.00 0.00 63 1013.4
20260905173112 71 0 0.0 3.0 0.00 0.00 0.00 65 1013.4
20260905171602 71 0 0.0 2.0 0.00 0.00 0.00 67 1013.5
20260905170059 71 360 1.0 3.0 0.00 0.00 0.00 67 1013.5
20260905164635 71 284 1.0 4.0 0.00 0.00 0.00 68 1013.6
20260905163107 70 263 1.0 7.0 0.00 0.00 0.00 70 1013.8
20260905161600 70 352 1.0 9.0 0.00 0.00 0.00 70 1013.9
20260905160100 71 304 1.0 5.0 0.00 0.00 0.00 66 1013.8
20260905154605 70 352 2.0 4.0 0.00 0.00 0.00 67 1013.7
20260905153102 69 55 1.0 3.0 0.00 0.00 0.00 69 1013.9
20260905151609 68 119 0.0 3.0 0.00 0.00 0.00 72 1013.9
20260905150105 67 11 0.0 3.0 0.00 0.00 0.00 75 1013.9
20260905144601 69 0 0.0 3.0 0.00 0.00 0.00 71 1013.9
20260905143100 68 351 3.0 6.0 0.00 0.00 0.00 73 1013.9
20260905141612 67 60 1.0 4.0 0.00 0.00 0.00 74 1014.1
20260905140503 67 18 0.0 3.0 0.00 0.00 0.00 77 1013.8
20260905134610 66 333 2.0 4.0 0.00 0.00 0.00 79 1013.8
20260905133100 65 9 0.0 4.0 0.00 0.00 0.00 80 1013.7
20260905131559 64 54 0.0 3.0 0.00 0.00 0.00 82 1013.8
20260905130113 63 338 1.0 3.0 0.00 0.00 0.00 83 1013.6
20260905124601 63 323 1.0 4.0 0.00 0.00 0.00 84 1013.6
20260905123101 62 302 1.0 3.0 0.00 0.00 0.00 85 1013.3
20260905121602 62 322 0.0 3.0 0.00 0.00 0.00 86 1013.2
20260905114626 61 360 1.0 5.0 0.00 0.00 0.00 86 1013.2
20260905113102 61 31 0.0 4.0 0.00 0.00 0.00 87 1012.9
20260905111601 61 0 1.0 4.0 0.00 0.00 0.00 87 1012.7
20260905110059 60 26 2.0 5.0 0.00 0.00 0.00 88 1012.5
20260905104605 60 23 0.0 2.0 0.00 0.00 0.00 88 1012.4
20260905103101 60 340 0.0 2.0 0.00 0.00 0.00 88 1012.3
20260905101600 60 327 1.0 3.0 0.00 0.00 0.00 88 1012.1
20260905100113 60 0 0.0 2.0 0.00 0.00 0.00 87 1012.1
20260905094624 60 333 1.0 3.0 0.00 0.00 0.00 87 1012.1
20260905093102 60 238 0.0 2.0 0.00 0.00 0.00 87 1012.1
20260905091615 60 0 0.0 2.0 0.00 0.00 0.00 87 1012.1
20260905090057 60 0 1.0 4.0 0.00 0.00 0.00 87 1011.9
20260905084603 61 286 1.0 4.0 0.00 0.00 0.00 86 1011.7
20260905083102 61 321 1.0 4.0 0.00 0.00 0.00 86 1011.7